Chippewa, MI

12:37 AM EST on December 13, 2017 (GMT -0500)
Chippewa County International

Weather History for KCIU - November, 2011

Change the Weather History Date:

Friday, November 18, 2011

  Actual Average Record
Temperature  
Mean Temperature 30 °F -  
Max Temperature 42 °F 37 °F 59 °F (2016)
Min Temperature 19 °F 21 °F 3 °F (1992)
Degree Days  
Heating Degree Days 34    
Moisture  
Dew Point 21 °F    
Average Humidity 66    
Maximum Humidity 75    
Minimum Humidity 57    
Precipitation  
Precipitation 0.00 in - - ()
Sea Level Pressure  
Sea Level Pressure 29.91 in    
Wind  
Wind Speed 8 mph (SSW)    
Max Wind Speed 15 mph    
Max Gust Speed 22 mph    
Visibility 10 miles    
Events      
Averages and records for this station are not official NWS values.
T = Trace of Precipitation, MM = Missing Value Source: NWS Daily Summary

Daily Weather History Graph

Daily Weather History Graph

Search for Another Location

Airport or City:

Trip Planner

Search our weather history database for the weather conditions in past years. The results will help you decide how hot, cold, wet, or windy it might be!

Date:

Astronomy

Nov. 18, 2011 Rise Set
Actual Time 7:42 AM EST 5:02 PM EST
Civil Twilight 7:10 AM EST 5:35 PM EST
Nautical Twilight 6:33 AM EST 6:12 PM EST
Astronomical Twilight 5:57 AM EST 6:47 PM EST
Moon No Moon Rise 1:11 PM EST (11/18)
Length of Visible Light 10h 25m
Length of Day
9h 19m
Waning Gibbous, 49% of the Moon is Illuminated
Nov 18
Waning Gibbous
Nov 25
New
Dec 2
First Quarter
Dec 10
Full
Dec 17
Last Quarter

Hourly Weather History & Observations

Time (EST) Temp. Windchill Dew Point Humidity Pressure Visibility Wind Dir Wind Speed Gust Speed Precip Events Conditions
12:15 AM 21.2 °F 12.6 °F 14.0 °F 74% 30.04 in 10.0 mi West 6.9 mph - N/A   Clear
12:35 AM 21.2 °F 12.6 °F 14.0 °F 74% 30.04 in 10.0 mi West 6.9 mph - N/A   Clear
12:55 AM 21.2 °F 10.9 °F 12.2 °F 68% 30.04 in 10.0 mi West 9.2 mph - N/A   Clear
1:15 AM 21.2 °F 11.7 °F 12.2 °F 68% 30.04 in 10.0 mi West 8.1 mph - N/A   Clear
1:35 AM 21.2 °F 11.7 °F 12.2 °F 68% 30.05 in 10.0 mi West 8.1 mph - N/A   Clear
1:55 AM 21.2 °F 12.6 °F 12.2 °F 68% 30.05 in 10.0 mi West 6.9 mph - N/A   Clear
2:15 AM 21.2 °F 12.6 °F 12.2 °F 68% 30.05 in 10.0 mi West 6.9 mph - N/A   Clear
2:35 AM 19.4 °F 10.4 °F 10.4 °F 68% 30.05 in 10.0 mi West 6.9 mph - N/A   Clear
2:55 AM 19.4 °F 11.5 °F 10.4 °F 68% 30.06 in 10.0 mi West 5.8 mph - N/A   Clear
3:55 AM 19.4 °F 11.5 °F 10.4 °F 68% 30.05 in 10.0 mi West 5.8 mph - N/A   Overcast
4:15 AM 19.4 °F 11.5 °F 10.4 °F 68% 30.05 in 10.0 mi West 5.8 mph - N/A   Overcast
4:35 AM 21.2 °F 16.4 °F 10.4 °F 63% 30.04 in 10.0 mi WSW 3.5 mph - N/A   Overcast
4:55 AM 21.2 °F 14.9 °F 10.4 °F 63% 30.05 in 10.0 mi WSW 4.6 mph - N/A   Overcast
5:15 AM 19.4 °F 12.8 °F 10.4 °F 68% 30.05 in 10.0 mi WSW 4.6 mph - N/A   Scattered Clouds
5:35 AM 19.4 °F 14.3 °F 10.4 °F 68% 30.05 in 10.0 mi WSW 3.5 mph - N/A   Scattered Clouds
5:55 AM 19.4 °F 12.8 °F 10.4 °F 68% 30.04 in 10.0 mi SW 4.6 mph - N/A   Overcast
6:15 AM 19.4 °F 12.8 °F 10.4 °F 68% 30.03 in 10.0 mi South 4.6 mph - N/A   Mostly Cloudy
6:55 AM 21.2 °F 16.4 °F 12.2 °F 68% 30.03 in 10.0 mi South 3.5 mph - N/A   Overcast
7:15 AM 21.2 °F - 12.2 °F 68% 30.03 in 10.0 mi Calm Calm - N/A   Overcast
7:35 AM 19.4 °F 14.3 °F 12.2 °F 74% 30.03 in 10.0 mi SE 3.5 mph - N/A   Overcast
7:55 AM 19.4 °F 10.4 °F 12.2 °F 74% 30.03 in 10.0 mi SSE 6.9 mph - N/A   Overcast
8:15 AM 21.2 °F 12.6 °F 14.0 °F 74% 30.04 in 10.0 mi SE 6.9 mph - N/A   Overcast
8:35 AM 21.2 °F 12.6 °F 14.0 °F 74% 30.03 in 10.0 mi SE 6.9 mph - N/A   Overcast
8:55 AM 23.0 °F 13.1 °F 14.0 °F 68% 30.03 in 10.0 mi SE 9.2 mph - N/A   Overcast
9:55 AM 26.6 °F 16.8 °F 17.6 °F 69% 29.98 in 10.0 mi ESE 10.4 mph - N/A   Overcast
10:15 AM 26.6 °F 15.7 °F 19.4 °F 74% 29.97 in 10.0 mi ESE 12.7 mph - N/A   Overcast
10:35 AM 28.4 °F 17.5 °F 19.4 °F 69% 29.96 in 10.0 mi ESE 13.8 mph - N/A   Overcast
10:55 AM 28.4 °F 17.5 °F 21.2 °F 74% 29.94 in 7.0 mi ESE 13.8 mph - N/A   Overcast
11:15 AM 30.2 °F 19.8 °F 21.2 °F 69% 29.93 in 10.0 mi SE 13.8 mph - N/A   Mostly Cloudy
11:35 AM 30.2 °F 19.3 °F 21.2 °F 69% 29.91 in 10.0 mi ESE 15.0 mph - N/A   Overcast
11:55 AM 30.2 °F 20.2 °F 21.2 °F 69% 29.89 in 10.0 mi SE 12.7 mph - N/A   Overcast
12:15 PM 30.2 °F 20.2 °F 23.0 °F 75% 29.87 in 10.0 mi SE 12.7 mph - N/A   Overcast
12:35 PM 32.0 °F 23.0 °F 24.8 °F 75% 29.85 in 10.0 mi SE 11.5 mph - N/A   Overcast
12:55 PM 33.8 °F 24.8 °F 24.8 °F 70% 29.83 in 10.0 mi SE 12.7 mph - N/A   Overcast
1:15 PM 33.8 °F 25.3 °F 24.8 °F 70% 29.83 in 10.0 mi SSE 11.5 mph - N/A   Overcast
1:35 PM 35.6 °F 28.6 °F 24.8 °F 65% 29.82 in 10.0 mi SE 9.2 mph - N/A   Overcast
1:55 PM 35.6 °F 29.9 °F 26.6 °F 70% 29.82 in 10.0 mi SSE 6.9 mph - N/A   Overcast
2:15 PM 35.6 °F 28.0 °F 24.8 °F 65% 29.81 in 10.0 mi SSE 10.4 mph - N/A   Overcast
2:35 PM 35.6 °F 28.6 °F 26.6 °F 70% 29.80 in 10.0 mi SE 9.2 mph - N/A   Overcast
2:55 PM 35.6 °F 28.6 °F 26.6 °F 70% 29.79 in 10.0 mi SE 9.2 mph - N/A   Overcast
3:35 PM 35.6 °F 30.7 °F 26.6 °F 70% 29.78 in 10.0 mi South 5.8 mph - N/A   Overcast
3:55 PM 37.4 °F 33.8 °F 28.4 °F 70% 29.78 in 10.0 mi SSW 4.6 mph - N/A   Overcast
4:15 PM 41.0 °F 35.2 °F 28.4 °F 61% 29.79 in 10.0 mi SW 9.2 mph 17.3 mph N/A   Overcast
4:35 PM 41.0 °F 36.4 °F 28.4 °F 61% 29.79 in 10.0 mi SSW 6.9 mph - N/A   Overcast
4:55 PM 41.0 °F 36.4 °F 28.4 °F 61% 29.79 in 10.0 mi SSW 6.9 mph - N/A   Overcast
5:15 PM 41.0 °F 34.7 °F 28.4 °F 61% 29.78 in 10.0 mi SW 10.4 mph - N/A   Overcast
5:35 PM 42.8 °F 38.6 °F 28.4 °F 57% 29.78 in 10.0 mi WSW 6.9 mph 21.9 mph N/A   Mostly Cloudy
5:55 PM 42.8 °F 37.5 °F 28.4 °F 57% 29.79 in 10.0 mi SSW 9.2 mph 21.9 mph N/A   Mostly Cloudy
6:15 PM 42.8 °F 37.5 °F 28.4 °F 57% 29.80 in 10.0 mi SSW 9.2 mph 16.1 mph N/A   Mostly Cloudy
6:55 PM 42.8 °F 37.5 °F 28.4 °F 57% 29.80 in 10.0 mi SSW 9.2 mph 18.4 mph N/A   Overcast
7:15 PM 42.8 °F 37.5 °F 28.4 °F 57% 29.80 in 10.0 mi SSW 9.2 mph - N/A   Overcast
7:35 PM 42.8 °F 37.5 °F 28.4 °F 57% 29.80 in 10.0 mi SSW 9.2 mph - N/A   Overcast
7:55 PM 42.8 °F 38.0 °F 28.4 °F 57% 29.79 in 10.0 mi SW 8.1 mph 19.6 mph N/A   Overcast
8:15 PM 42.8 °F 36.6 °F 28.4 °F 57% 29.79 in 10.0 mi SSW 11.5 mph 19.6 mph N/A   Overcast
8:35 PM 42.8 °F 37.0 °F 30.2 °F 61% 29.79 in 10.0 mi SSW 10.4 mph 18.4 mph N/A   Overcast
8:55 PM 42.8 °F 38.6 °F 30.2 °F 61% 29.78 in 10.0 mi SSW 6.9 mph 17.3 mph N/A   Overcast
9:15 PM 42.8 °F 37.0 °F 30.2 °F 61% 29.79 in 10.0 mi SSW 10.4 mph - N/A   Overcast
9:35 PM 42.8 °F 37.5 °F 30.2 °F 61% 29.79 in 10.0 mi SW 9.2 mph 17.3 mph N/A   Overcast
9:55 PM 42.8 °F 37.0 °F 30.2 °F 61% 29.79 in 10.0 mi SW 10.4 mph 17.3 mph N/A   Overcast
10:15 PM 42.8 °F 37.0 °F 30.2 °F 61% 29.79 in 10.0 mi SW 10.4 mph 16.1 mph N/A   Overcast
11:15 PM 42.8 °F 38.0 °F 30.2 °F 61% 29.79 in 10.0 mi SSW 8.1 mph - N/A   Overcast
11:35 PM 42.8 °F 38.6 °F 30.2 °F 61% 29.80 in 10.0 mi WSW 6.9 mph - N/A   Overcast
11:55 PM 42.8 °F 38.0 °F 32.0 °F 66% 29.80 in 10.0 mi WSW 8.1 mph - N/A   Overcast